BTI31C ELLX-EDDH

Flight info

Callsign BTI31C
Flight time 0h 56m
Altitude 23000
Route ASMOX1R ASMOX Y891 ROPUV/N0454F310 L607 UBIDU L984 RUDUS/N0397F230 Z10 GISEM/N0446F340 N850 WRB P12 NORTA P605 NOLGO NOLGO6A
Aircraft A320/M-VGDW/C

Departure

Time 2026-05-05 14:06
Airport Luxembourg-Findel International Airport (ELLX)

Arrival

Time 2026-05-05 15:02
Airport Hamburg Helmut Schmidt Airport (EDDH)
Time Latitude Longitude Altitude Speed Heading
2026-05-05 13:51 49.63383 6.21791 1198 ft 0 kts 328°
2026-05-05 13:56 49.63370 6.21802 1198 ft 3 kts 341°
2026-05-05 13:57 49.63353 6.21811 1198 ft 2 kts 353°
2026-05-05 13:57 49.63339 6.21805 1199 ft 1 kts 60°
2026-05-05 13:57 49.63338 6.21804 1199 ft 0 kts 59°
2026-05-05 14:00 49.63341 6.21813 1199 ft 4 kts 68°
2026-05-05 14:01 49.63354 6.21905 1199 ft 12 kts 83°
2026-05-05 14:01 49.63337 6.22013 1189 ft 9 kts 127°
2026-05-05 14:01 49.63304 6.22067 1199 ft 5 kts 133°
2026-05-05 14:01 49.63283 6.22099 1200 ft 5 kts 137°
2026-05-05 14:02 49.63254 6.22153 1201 ft 7 kts 117°
2026-05-05 14:02 49.63255 6.22224 1202 ft 8 kts 70°
2026-05-05 14:02 49.63288 6.22330 1202 ft 15 kts 64°
2026-05-05 14:02 49.63343 6.22501 1202 ft 21 kts 62°
2026-05-05 14:03 49.63425 6.22718 1206 ft 26 kts 60°
2026-05-05 14:03 49.63521 6.22982 1203 ft 30 kts 60°
2026-05-05 14:03 49.63547 6.23053 1203 ft 0 kts 62°
2026-05-05 14:03 49.63552 6.23066 1203 ft 6 kts 62°
2026-05-05 14:04 49.63597 6.23186 1207 ft 19 kts 58°
2026-05-05 14:04 49.63663 6.23383 1204 ft 13 kts 82°
2026-05-05 14:04 49.63643 6.23442 1208 ft 16 kts 139°
2026-05-05 14:04 49.63540 6.23520 1233 ft 9 kts 179°
2026-05-05 14:05 49.63509 6.23480 1233 ft 4 kts 238°
2026-05-05 14:05 49.63481 6.23407 1232 ft 29 kts 240°
2026-05-05 14:05 49.63254 6.22794 1225 ft 104 kts 240°
2026-05-05 14:05 49.62768 6.21486 1277 ft 168 kts 240°
2026-05-05 14:06 49.62203 6.19889 2083 ft 165 kts 240°
2026-05-05 14:06 49.61662 6.18378 3147 ft 158 kts 240°
2026-05-05 14:06 49.61284 6.17373 3621 ft 170 kts 239°
2026-05-05 14:06 49.60376 6.14997 3941 ft 223 kts 239°
2026-05-05 14:07 49.59817 6.13521 3966 ft 245 kts 239°
2026-05-05 14:07 49.58653 6.10408 3966 ft 255 kts 239°
2026-05-05 14:07 49.58062 6.08824 4052 ft 260 kts 239°
2026-05-05 14:07 49.57162 6.06342 4688 ft 268 kts 243°
2026-05-05 14:08 49.56628 6.03603 5583 ft 268 kts 263°
2026-05-05 14:08 49.56905 6.00789 6335 ft 272 kts 290°
2026-05-05 14:08 49.58005 5.98393 6507 ft 279 kts 320°
2026-05-05 14:08 49.59786 5.97167 6931 ft 287 kts 351°
2026-05-05 14:09 49.61788 5.97389 7817 ft 292 kts 19°
2026-05-05 14:09 49.63563 5.98788 8480 ft 290 kts 34°
2026-05-05 14:09 49.65243 6.00572 8974 ft 294 kts 37°
2026-05-05 14:09 49.66931 6.02438 9896 ft 298 kts 37°
2026-05-05 14:10 49.68655 6.04331 10491 ft 314 kts 37°
2026-05-05 14:10 49.70513 6.06351 10849 ft 337 kts 36°
2026-05-05 14:10 49.72470 6.08460 11284 ft 356 kts 36°
2026-05-05 14:10 49.74541 6.10686 11996 ft 366 kts 36°
2026-05-05 14:11 49.76661 6.12961 12863 ft 373 kts 36°
2026-05-05 14:11 49.78807 6.15263 13716 ft 378 kts 36°
2026-05-05 14:11 49.80991 6.17607 14460 ft 383 kts 36°
2026-05-05 14:11 49.83192 6.19972 15219 ft 387 kts 36°
2026-05-05 14:12 49.85389 6.22335 15929 ft 392 kts 36°
2026-05-05 14:12 49.87644 6.24764 16635 ft 397 kts 36°
2026-05-05 14:12 49.89945 6.27186 17343 ft 402 kts 33°
2026-05-05 14:12 49.92413 6.29350 18054 ft 407 kts 28°
2026-05-05 14:13 49.94976 6.31285 18664 ft 412 kts 25°
2026-05-05 14:13 49.97576 6.33103 19269 ft 416 kts 24°
2026-05-05 14:13 50.00242 6.34921 19891 ft 420 kts 24°
2026-05-05 14:13 50.02932 6.36761 20501 ft 424 kts 25°
2026-05-05 14:14 50.05563 6.38850 21099 ft 426 kts 33°
2026-05-05 14:14 50.07914 6.41685 21676 ft 427 kts 46°
2026-05-05 14:14 50.09763 6.45226 22315 ft 426 kts 59°
2026-05-05 14:14 50.11298 6.49183 22730 ft 428 kts 63°
2026-05-05 14:15 50.12674 6.53292 22823 ft 428 kts 66°
2026-05-05 14:15 50.13963 6.57496 22830 ft 428 kts 68°
2026-05-05 14:15 50.15212 6.61714 22829 ft 428 kts 68°
2026-05-05 14:15 50.16459 6.65936 22830 ft 428 kts 68°
2026-05-05 14:16 50.17722 6.70170 22826 ft 429 kts 67°
2026-05-05 14:16 50.18979 6.74332 22825 ft 429 kts 67°
2026-05-05 14:16 50.20260 6.78544 22824 ft 429 kts 68°
2026-05-05 14:16 50.21293 6.82885 22829 ft 426 kts 77°
2026-05-05 14:17 50.21786 6.87429 22828 ft 421 kts 89°
2026-05-05 14:17 50.21832 6.91990 22813 ft 421 kts 93°
2026-05-05 14:17 50.21703 6.96567 22830 ft 421 kts 96°
2026-05-05 14:17 50.21481 7.01070 22829 ft 421 kts 97°
2026-05-05 14:18 50.21211 7.05643 22830 ft 421 kts 97°
2026-05-05 14:18 50.20932 7.10207 22829 ft 421 kts 97°
2026-05-05 14:18 50.20657 7.14761 22828 ft 421 kts 97°
2026-05-05 14:18 50.20394 7.19261 22829 ft 421 kts 97°
2026-05-05 14:19 50.20136 7.23818 22829 ft 421 kts 97°
2026-05-05 14:19 50.19883 7.28391 22827 ft 421 kts 97°
2026-05-05 14:19 50.19426 7.32891 22826 ft 418 kts 105°
2026-05-05 14:19 50.18686 7.37283 22822 ft 418 kts 107°
2026-05-05 14:20 50.18156 7.41765 22823 ft 421 kts 97°
2026-05-05 14:20 50.18190 7.46300 22821 ft 425 kts 85°
2026-05-05 14:20 50.18922 7.50795 22820 ft 428 kts 70°
2026-05-05 14:20 50.20376 7.54879 22834 ft 432 kts 57°
2026-05-05 14:21 50.22217 7.58535 22820 ft 434 kts 51°
2026-05-05 14:21 50.24277 7.62019 22821 ft 435 kts 47°
2026-05-05 14:21 50.26407 7.65371 22815 ft 435 kts 46°
2026-05-05 14:21 50.28558 7.68695 22814 ft 435 kts 46°
2026-05-05 14:22 50.30716 7.72054 22816 ft 435 kts 47°
2026-05-05 14:22 50.32843 7.75420 22817 ft 435 kts 47°
2026-05-05 14:22 50.34930 7.78776 22812 ft 435 kts 47°
2026-05-05 14:22 50.37033 7.82199 22812 ft 435 kts 48°
2026-05-05 14:23 50.39127 7.85633 22814 ft 435 kts 48°
2026-05-05 14:23 50.41218 7.89076 22820 ft 436 kts 48°
2026-05-05 14:23 50.43320 7.92545 22813 ft 438 kts 48°
2026-05-05 14:23 50.45391 7.95967 22808 ft 438 kts 48°
2026-05-05 14:24 50.47498 7.99451 22814 ft 439 kts 48°
2026-05-05 14:24 50.49603 8.02934 22812 ft 439 kts 48°
2026-05-05 14:24 50.51709 8.06422 22820 ft 439 kts 48°
2026-05-05 14:24 50.53784 8.09864 22807 ft 439 kts 48°
2026-05-05 14:25 50.55890 8.13360 22805 ft 439 kts 48°
2026-05-05 14:25 50.57995 8.16860 22818 ft 439 kts 48°
2026-05-05 14:25 50.60098 8.20364 22815 ft 439 kts 48°
2026-05-05 14:25 50.62196 8.23862 22804 ft 439 kts 48°
2026-05-05 14:26 50.64268 8.27322 22824 ft 439 kts 48°
2026-05-05 14:26 50.66371 8.30838 22831 ft 439 kts 48°
2026-05-05 14:26 50.68469 8.34351 22815 ft 439 kts 48°
2026-05-05 14:26 50.70568 8.37870 22818 ft 439 kts 48°
2026-05-05 14:27 50.72634 8.41340 22821 ft 439 kts 48°
2026-05-05 14:27 50.74731 8.44867 22799 ft 439 kts 48°
2026-05-05 14:27 50.76825 8.48394 22800 ft 440 kts 48°
2026-05-05 14:27 50.78927 8.51938 22805 ft 441 kts 48°
2026-05-05 14:28 50.81025 8.55481 22800 ft 441 kts 48°
2026-05-05 14:28 50.83099 8.58987 22809 ft 442 kts 48°
2026-05-05 14:28 50.85198 8.62541 22814 ft 441 kts 48°
2026-05-05 14:28 50.87309 8.66121 22811 ft 442 kts 48°
2026-05-05 14:29 50.89383 8.69643 22806 ft 442 kts 48°
2026-05-05 14:29 50.91480 8.73209 22809 ft 442 kts 48°
2026-05-05 14:29 50.93580 8.76784 22814 ft 441 kts 48°
2026-05-05 14:29 50.95668 8.80346 22809 ft 441 kts 48°
2026-05-05 14:30 50.97762 8.83921 22811 ft 441 kts 49°
2026-05-05 14:30 50.99856 8.87503 22823 ft 441 kts 49°
2026-05-05 14:30 51.01933 8.91008 22823 ft 442 kts 45°
2026-05-05 14:30 51.04355 8.94074 22819 ft 444 kts 33°
2026-05-05 14:31 51.07136 8.96178 22827 ft 444 kts 18°
2026-05-05 14:31 51.10119 8.97534 22832 ft 444 kts 13°
2026-05-05 14:31 51.13095 8.98617 22827 ft 444 kts 12°
2026-05-05 14:31 51.16163 8.99623 22809 ft 444 kts 11°
2026-05-05 14:32 51.19165 9.00571 22812 ft 444 kts 11°
2026-05-05 14:32 51.22209 9.01536 22814 ft 444 kts 11°
2026-05-05 14:32 51.25253 9.02518 22814 ft 445 kts 11°
2026-05-05 14:32 51.28296 9.03521 22818 ft 445 kts 11°
2026-05-05 14:33 51.31301 9.04526 22822 ft 445 kts 11°
2026-05-05 14:33 51.34340 9.05552 22816 ft 445 kts 11°
2026-05-05 14:33 51.37374 9.06582 22829 ft 445 kts 11°
2026-05-05 14:33 51.40409 9.07617 22828 ft 445 kts 11°
2026-05-05 14:34 51.43440 9.08651 22826 ft 445 kts 11°
2026-05-05 14:34 51.46432 9.09727 22833 ft 445 kts 15°
2026-05-05 14:34 51.49331 9.11526 22822 ft 445 kts 27°
2026-05-05 14:34 51.51902 9.14301 22830 ft 444 kts 42°
2026-05-05 14:35 51.54102 9.17690 22841 ft 443 kts 47°
2026-05-05 14:35 51.56185 9.21360 22846 ft 443 kts 50°
2026-05-05 14:35 51.58177 9.25148 22827 ft 443 kts 52°
2026-05-05 14:35 51.60130 9.28985 22826 ft 443 kts 52°
2026-05-05 14:36 51.62078 9.32836 22831 ft 443 kts 52°
2026-05-05 14:36 51.64030 9.36680 22843 ft 443 kts 52°
2026-05-05 14:36 51.65994 9.40516 22837 ft 443 kts 51°
2026-05-05 14:36 51.67964 9.44338 22833 ft 443 kts 51°
2026-05-05 14:37 51.69942 9.48161 22847 ft 443 kts 51°
2026-05-05 14:37 51.71920 9.51978 22845 ft 443 kts 51°
2026-05-05 14:37 51.73870 9.55742 22845 ft 443 kts 51°
2026-05-05 14:37 51.75848 9.59565 22848 ft 443 kts 51°
2026-05-05 14:38 51.77809 9.63360 22851 ft 443 kts 51°
2026-05-05 14:38 51.79786 9.67195 22854 ft 443 kts 51°
2026-05-05 14:38 51.81764 9.71037 22855 ft 443 kts 51°
2026-05-05 14:38 51.83766 9.74848 22853 ft 443 kts 47°
2026-05-05 14:39 51.86050 9.78101 22845 ft 444 kts 35°
2026-05-05 14:39 51.88759 9.80513 22863 ft 444 kts 20°
2026-05-05 14:39 51.91727 9.81870 22871 ft 442 kts 11°
2026-05-05 14:39 51.94755 9.82756 22856 ft 442 kts
2026-05-05 14:40 51.97807 9.83400 22867 ft 441 kts
2026-05-05 14:40 52.00868 9.83936 22875 ft 441 kts
2026-05-05 14:40 52.03886 9.84436 22869 ft 441 kts
2026-05-05 14:40 52.06941 9.84954 22894 ft 441 kts
2026-05-05 14:41 52.10017 9.85501 22877 ft 441 kts
2026-05-05 14:41 52.13036 9.86062 22885 ft 440 kts
2026-05-05 14:41 52.16075 9.86644 22884 ft 439 kts
2026-05-05 14:41 52.19109 9.87236 22883 ft 438 kts
2026-05-05 14:42 52.22138 9.87832 22883 ft 437 kts
2026-05-05 14:42 52.25146 9.88652 22885 ft 438 kts 11°
2026-05-05 14:42 52.28128 9.89778 22885 ft 438 kts 12°
2026-05-05 14:42 52.31058 9.90984 22885 ft 439 kts 13°
2026-05-05 14:43 52.34013 9.92264 22885 ft 439 kts 14°
2026-05-05 14:43 52.36961 9.93573 22889 ft 439 kts 13°
2026-05-05 14:43 52.39911 9.94892 22887 ft 439 kts 13°
2026-05-05 14:43 52.42867 9.96215 22887 ft 440 kts 13°
2026-05-05 14:44 52.45819 9.97532 22885 ft 439 kts 13°
2026-05-05 14:44 52.48771 9.98846 22884 ft 439 kts 13°
2026-05-05 14:44 52.51689 10.00142 22884 ft 439 kts 13°
2026-05-05 14:44 52.54647 10.01455 22883 ft 439 kts 13°
2026-05-05 14:45 52.57601 10.02769 22883 ft 439 kts 13°
2026-05-05 14:45 52.60562 10.04089 22887 ft 439 kts 13°
2026-05-05 14:45 52.63521 10.05411 22883 ft 439 kts 13°
2026-05-05 14:45 52.66466 10.06452 22880 ft 437 kts
2026-05-05 14:46 52.69496 10.06973 22895 ft 436 kts
2026-05-05 14:46 52.72589 10.07350 22704 ft 451 kts
2026-05-05 14:46 52.75740 10.07683 22447 ft 453 kts
2026-05-05 14:46 52.78882 10.07997 22189 ft 452 kts
2026-05-05 14:47 52.81985 10.08299 21929 ft 450 kts
2026-05-05 14:47 52.85104 10.08600 21680 ft 446 kts
2026-05-05 14:47 52.88194 10.08896 21418 ft 443 kts
2026-05-05 14:47 52.91270 10.09189 21159 ft 441 kts
2026-05-05 14:48 52.94332 10.09480 20901 ft 439 kts
2026-05-05 14:48 52.97381 10.09770 20650 ft 438 kts
2026-05-05 14:48 53.00416 10.10060 20172 ft 432 kts
2026-05-05 14:48 53.03382 10.10343 19425 ft 431 kts
2026-05-05 14:49 53.06378 10.10628 18644 ft 429 kts
2026-05-05 14:49 53.09351 10.10912 17862 ft 423 kts
2026-05-05 14:49 53.12270 10.11192 17067 ft 417 kts
2026-05-05 14:49 53.15144 10.11468 16325 ft 410 kts
2026-05-05 14:50 53.17947 10.11737 15606 ft 403 kts
2026-05-05 14:50 53.20733 10.12005 14881 ft 397 kts
2026-05-05 14:50 53.23479 10.12269 14171 ft 392 kts
2026-05-05 14:50 53.25279 10.12443 13705 ft 388 kts
2026-05-05 14:51 53.28779 10.12782 13148 ft 368 kts
2026-05-05 14:51 53.31267 10.12901 12835 ft 348 kts 353°
2026-05-05 14:51 53.33517 10.11859 12536 ft 326 kts 330°
2026-05-05 14:51 53.34738 10.10487 12194 ft 316 kts 316°
2026-05-05 14:52 53.36036 10.07595 11539 ft 309 kts 293°
2026-05-05 14:52 53.36949 10.03115 10698 ft 303 kts 284°
2026-05-05 14:52 53.37332 10.00818 10328 ft 300 kts 284°
2026-05-05 14:52 53.37877 9.97506 9794 ft 295 kts 284°
2026-05-05 14:53 53.38421 9.94234 9218 ft 289 kts 284°
2026-05-05 14:53 53.38953 9.91015 8643 ft 284 kts 284°
2026-05-05 14:53 53.39472 9.87831 8079 ft 281 kts 284°
2026-05-05 14:53 53.39970 9.84719 7528 ft 279 kts 284°
2026-05-05 14:54 53.40465 9.81578 6982 ft 276 kts 284°
2026-05-05 14:54 53.40948 9.78480 6438 ft 273 kts 284°
2026-05-05 14:54 53.41418 9.75394 5869 ft 270 kts 284°
2026-05-05 14:54 53.41873 9.72352 5331 ft 266 kts 285°
2026-05-05 14:55 53.42563 9.69539 4783 ft 262 kts 306°
2026-05-05 14:55 53.43898 9.67516 4254 ft 258 kts 333°
2026-05-05 14:55 53.45623 9.67021 3785 ft 251 kts 10°
2026-05-05 14:55 53.47220 9.67994 3515 ft 238 kts 28°
2026-05-05 14:56 53.48523 9.69548 3236 ft 226 kts 43°
2026-05-05 14:56 53.49556 9.71509 3023 ft 219 kts 51°
2026-05-05 14:56 53.50474 9.73413 2996 ft 199 kts 50°
2026-05-05 14:56 53.51315 9.75131 2994 ft 189 kts 50°
2026-05-05 14:57 53.52127 9.76776 2979 ft 171 kts 49°
2026-05-05 14:57 53.52833 9.78200 2914 ft 149 kts 49°
2026-05-05 14:57 53.53483 9.79496 2738 ft 143 kts 50°
2026-05-05 14:57 53.54119 9.80777 2555 ft 141 kts 50°
2026-05-05 14:58 53.54734 9.82019 2363 ft 132 kts 50°
2026-05-05 14:58 53.55297 9.83159 2150 ft 123 kts 49°
2026-05-05 14:58 53.55837 9.84248 1994 ft 123 kts 50°
2026-05-05 14:58 53.56384 9.85354 1824 ft 122 kts 50°
2026-05-05 14:59 53.56929 9.86455 1652 ft 122 kts 50°
2026-05-05 14:59 53.57470 9.87550 1482 ft 122 kts 50°
2026-05-05 14:59 53.58013 9.88647 1312 ft 121 kts 50°
2026-05-05 14:59 53.58551 9.89738 1128 ft 121 kts 50°
2026-05-05 15:00 53.59086 9.90843 962 ft 122 kts 51°
2026-05-05 15:00 53.59445 9.91569 828 ft 122 kts 50°
2026-05-05 15:00 53.60171 9.93044 633 ft 122 kts 47°
2026-05-05 15:00 53.60723 9.94127 459 ft 122 kts 51°
2026-05-05 15:01 53.61260 9.95228 299 ft 123 kts 50°
2026-05-05 15:01 53.61804 9.96327 134 ft 123 kts 52°
2026-05-05 15:01 53.62344 9.97415 54 ft 116 kts 52°
2026-05-05 15:01 53.62816 9.98360 48 ft 94 kts 51°
2026-05-05 15:02 53.63147 9.99044 49 ft 57 kts 51°
2026-05-05 15:02 53.63289 9.99472 48 ft 26 kts 88°
2026-05-05 15:02 53.63281 9.99612 47 ft 0 kts 100°
2026-05-05 15:03 53.63280 9.99622 47 ft 0 kts 99°
2026-05-05 15:03 53.63280 9.99624 47 ft 0 kts 99°
2026-05-05 15:04 53.63279 9.99634 48 ft 3 kts 99°
2026-05-05 15:04 53.63274 9.99691 48 ft 7 kts 96°
2026-05-05 15:04 53.63279 9.99762 48 ft 5 kts 52°
2026-05-05 15:04 53.63309 9.99823 48 ft 9 kts 50°
2026-05-05 15:05 53.63418 10.00042 49 ft 15 kts 57°
2026-05-05 15:05 53.63392 10.00199 49 ft 11 kts 136°
2026-05-05 15:05 53.63372 10.00279 49 ft 6 kts 99°
2026-05-05 15:06 53.63361 10.00342 49 ft 5 kts 105°
2026-05-05 15:06 53.63361 10.00368 49 ft 0 kts 88°